Regional Weather Roundup
Issued by NWS

Home | Current Version | Previous Version | Text Only | Print | Product List | Glossary On
Versions: 1 2 3 4 5 6 7 8 9 10 11 12 13 14 15 16 17 18 19 20 21 22 23 24 25 26 27
000
ASUS45 KPSR 181710
RWRAZ

ARIZONA HOURLY REGIONAL WEATHER ROUNDUP
NATIONAL WEATHER SERVICE PHOENIX AZ
1000 AM MST MON DEC 18 2017

NOTE: FAIR INDICATES FEW OR NO CLOUDS BELOW 12,000 FEET WITH NO
SIGNIFICANT WEATHER AND/OR OBSTRUCTIONS TO VISIBILITY.

AZZ001>003-036-181800-
NORTHWEST ARIZONA

CITY           SKY/WX    TMP DP  RH WIND       PRES   REMARKS
BULLHEAD CITY  SUNNY     54  21  28 N21       30.22R
KINGMAN        SUNNY     41  18  39 NE5       30.23R
$$

AZZ004>008-015-016-018-181800-
NORTH CENTRAL ARIZONA

CITY           SKY/WX    TMP DP  RH WIND       PRES   REMARKS
GRAND CANYON   SUNNY     41  12  30 E8        30.22S
WILLIAMS       SUNNY     43   9  24 S5        30.19R
PRESCOTT       SUNNY     43  17  35 CALM      30.19R
FLAGSTAFF      SUNNY     41   4  21 NE12      30.20R
PAYSON         SUNNY     45  14  29 NE6       30.17S
PAGE           SUNNY     35  17  47 SE3       30.26R
$$

AZZ009>014-017-181800-
NORTHEAST ARIZONA

CITY           SKY/WX    TMP DP  RH WIND       PRES   REMARKS
WINSLOW        SUNNY     36  12  37 NW3       30.23R
SAINT JOHNS    CLOUDY    29  19  66 NW7       30.19R WCI  22
WINDOW ROCK    SUNNY     33   4  29 N3        30.20S
SHOW LOW       MOSUNNY   30  14  51 N6        30.21R WCI  24
$$

AZZ540-542>544-546-548-181800-
GREATER PHOENIX AREA

CITY           SKY/WX    TMP DP  RH WIND       PRES   REMARKS
PHOENIX        MOSUNNY   55  38  52 E5        30.13R
BUCKEYE        SUNNY     54  50  87 NE3       30.16R
GLENDALE       SUNNY     55  32  41 CALM      30.16R
LUKE AFB       SUNNY     55  37  49 CALM      30.14R
DEER VALLEY    SUNNY     54  35  48 NW3       30.14R
SCOTTSDALE     SUNNY     55  39  54 CALM      30.15R
MESA-FALCON    MOSUNNY   55  39  54 CALM      30.15R
MESA-GATEWAY   MOSUNNY   48  43  81 CALM      30.16R
$$

AZZ539-553-181800-
SOUTHWEST MARICOPA COUNTY AND PINAL COUNTY

CITY           SKY/WX    TMP DP  RH WIND       PRES   REMARKS
CASA GRANDE    NOT AVBL
$$

AZZ503-504-507>509-181800-
SOUTHEAST ARIZONA

CITY           SKY/WX    TMP DP  RH WIND       PRES   REMARKS
TUCSON         CLOUDY    49  45  86 MISG      30.16R
DAVIS-MONTHAN  CLOUDY    49  45  87 SE6       30.15R
RYAN FIELD     MOSUNNY  N/A  45   0 N3        30.17R
NOGALES        SUNNY     49  43  80 S3        30.13R
SIERRA VISTA   CLOUDY    44  37  78 CALM      30.17R
DOUGLAS        CLOUDY    42  38  85 CALM      30.18R
SAFFORD        CLOUDY    46  42  86 SE6       30.16R
$$

AZZ532-181800-
SOUTHWEST ARIZONA

CITY           SKY/WX    TMP DP  RH WIND       PRES   REMARKS
YUMA           SUNNY     59  16  18 N10       30.17R
$$

CAZ041-043-047-048-061-525>527-560>570-181800-
SOUTHERN CALIFORNIA

CITY           SKY/WX    TMP DP  RH WIND       PRES   REMARKS
DOWNTOWN L.A.  SUNNY     59  18  20 CALM      30.17R
L.A. AIRPORT   MOSUNNY   63  19  18 N3        30.18R
SAN DIEGO      SUNNY     58  33  39 CALM      30.18R
BURBANK        SUNNY     63  19  18 CALM      30.18R
ONTARIO        MOSUNNY   56  19  23 CALM      30.17R
RIVERSIDE      SUNNY     54  23  30 SE5       30.17S
PALM SPRINGS   SUNNY     62  17  17 N3        30.20R
EL CENTRO NAS  SUNNY     54  22  28 W7        30.19R
IMPERIAL       SUNNY     55  25  31 W3        30.17R
BLYTHE         SUNNY     52  15  23 CALM      30.20R
NEEDLES        SUNNY     56  20  24 N8        30.23R
$$

NVZ020-UTZ003-181800-
SOUTHERN NEVADA-UTAH

CITY           SKY/WX    TMP DP  RH WIND       PRES   REMARKS
LAS VEGAS      MOSUNNY   47  17  30 W5        30.26R
SALT LAKE CITY PTSUNNY   33  24  69 SE9       30.31R WCI  25
$$

NMZ009-TXZ055-181800-
NEW MEXICO-WEST TEXAS

CITY           SKY/WX    TMP DP  RH WIND       PRES   REMARKS
ALBUQUERQUE    CLOUDY    37  23  56 N10       30.19S WCI  30
EL PASO        MOSUNNY   48  45  89 NE6       30.15R
$$


........................KEY........................
SKY/WX - SKY CONDITION/WEATHER
TMP    - TEMPERATURE IN FAHRENHEIT
DP     - DEW POINT IN FAHRENHEIT
RH     - RELATIVE HUMIDITY IN PERCENT
WIND   - DIRECTION AND SPEED IN MILES PER HOUR (MPH)
VRB    - VARIABLE WIND DIRECTION
PRES   - MEAN SEA LEVEL PRESSURE IN INCHES OF MERCURY
         F - FALLING PRESSURE   R - RISING PRESSURE
         S - STEADY PRESSURE
VSB    - VISIBILITY IN MILES
HX     - HEAT INDEX IN FAHRENHEIT
WCI    - WIND CHILL INDEX IN FAHRENHEIT
TC     - TEMPERATURE IN CELSIUS WHICH IS ALSO KNOWN AS
         TEMPERATURE IN CENTIGRADE
AFB    - AIR FORCE BASE
         LUKE AFB IS LUKE AIR FORCE BASE
         DAVIS-MONTHAN IS DAVIS-MONTHAN AIR FORCE BASE
NAS    - NAVAL AIR STATION
         EL CENTRO NAS IS EL CENTRO NAVAL AIR STATION
N/A    - NOT AVAILABLE





USA.gov is the U.S. government's official web portal to all federal, state and local government web resources and services.